Weather History for Newberry, MI

Change the Weather History Date:

Monday, December 31, 2012

  Actual Average Record
Temperature  
Mean Temperature 22 °F -  
Max Temperature 30 °F 25 °F 47 °F (1965)
Min Temperature 15 °F 10 °F -14 °F (1968)
Degree Days  
Heating Degree Days 42    
Moisture  
Dew Point 17 °F    
Average Humidity 81    
Maximum Humidity 93    
Minimum Humidity 59    
Precipitation  
Precipitation 0.00 in - - ()
Sea Level Pressure  
Sea Level Pressure 29.88 in    
Wind  
Wind Speed 13 mph (West)    
Max Wind Speed 21 mph    
Max Gust Speed 26 mph    
Visibility 7 miles    
Events Snow    
Averages and records for this station are not official NWS values.
T = Trace of Precipitation, MM = Missing Value Source: NWS Daily Summary

Daily Weather History Graph

Daily Weather History Graph

Search for Another Location

Airport:

Trip Planner

Search our weather history database for the weather conditions in past years. The results will help you decide how hot, cold, wet, or windy it might be!

Date:

Astronomy

Dec. 31, 2012 Rise Set
Actual Time 8:24 AM EST 5:05 PM EST
Civil Twilight 7:50 AM EST 5:40 PM EST
Nautical Twilight 7:12 AM EST 6:18 PM EST
Astronomical Twilight 6:35 AM EST 6:54 PM EST
Moon 8:48 PM EST (12/31) 9:54 AM EST (12/31)
Length of Visible Light 9h 49m
Length of Day
8h 40m
Waning Gibbous, 90% of the Moon is Illuminated
Dec 31
Waning Gibbous
Jan 4
Last Quarter
Jan 11
New
Jan 18
First Quarter
Jan 26
Full

Hourly Weather History & Observations

Time (EST) Temp. Windchill Dew Point Humidity Pressure Visibility Wind Dir Wind Speed Gust Speed Precip Events Conditions
12:14 AM 28.4 °F 18.5 °F 24.8 °F 86% 29.88 in 10.0 mi SSW 11.5 mph - N/A   Overcast
12:34 AM 26.6 °F 15.7 °F 24.8 °F 93% 29.87 in 7.0 mi SSW 12.7 mph - N/A   Overcast
1:14 AM 28.4 °F 16.6 °F 26.6 °F 93% 29.85 in 10.0 mi SSW 16.1 mph - N/A   Overcast
1:35 AM 28.4 °F 16.2 °F 26.6 °F 93% 29.83 in 10.0 mi SSW 17.3 mph - N/A   Overcast
1:55 AM 30.2 °F 17.4 °F 26.6 °F 86% 29.81 in 10.0 mi SSW 20.7 mph 25.3 mph N/A   Overcast
2:14 AM 28.4 °F 15.1 °F 26.6 °F 93% 29.81 in 10.0 mi SSW 20.7 mph 26.5 mph N/A   Overcast
2:35 AM 28.4 °F 16.2 °F 24.8 °F 86% 29.81 in 10.0 mi SW 17.3 mph 24.2 mph N/A   Overcast
2:55 AM 28.4 °F 17.0 °F 24.8 °F 86% 29.81 in 10.0 mi SW 15.0 mph - N/A   Scattered Clouds
3:14 AM 26.6 °F 14.7 °F 24.8 °F 93% 29.81 in 10.0 mi SW 15.0 mph - N/A   Mostly Cloudy
3:35 AM 26.6 °F 15.2 °F 23.0 °F 86% 29.80 in 10.0 mi SW 13.8 mph 19.6 mph N/A   Overcast
3:54 AM 26.6 °F 15.7 °F 21.2 °F 80% 29.80 in 10.0 mi SW 12.7 mph - N/A   Overcast
4:14 AM 26.6 °F 17.5 °F 21.2 °F 80% 29.79 in 10.0 mi SW 9.2 mph - N/A   Overcast
4:35 AM 26.6 °F 15.7 °F 21.2 °F 80% 29.78 in 10.0 mi SW 12.7 mph - N/A   Overcast
4:54 AM 26.6 °F 16.2 °F 21.2 °F 80% 29.78 in 10.0 mi SW 11.5 mph - N/A   Overcast
5:15 AM 24.8 °F 12.9 °F 19.4 °F 80% 29.78 in 10.0 mi SW 13.8 mph - N/A   Overcast
5:34 AM 24.8 °F 14.0 °F 19.4 °F 80% 29.78 in 10.0 mi WSW 11.5 mph - N/A   Overcast
5:55 AM 24.8 °F 12.9 °F 19.4 °F 80% 29.79 in 10.0 mi WSW 13.8 mph 18.4 mph N/A   Overcast
6:15 AM 23.0 °F 11.1 °F 19.4 °F 86% 29.79 in 10.0 mi SW 12.7 mph 16.1 mph N/A   Overcast
6:34 AM 23.0 °F 11.7 °F 17.6 °F 80% 29.79 in 10.0 mi WSW 11.5 mph - N/A   Overcast
6:55 AM 23.0 °F 12.4 °F 17.6 °F 80% 29.79 in 10.0 mi WSW 10.4 mph - N/A   Overcast
7:15 AM 21.2 °F 10.9 °F 17.6 °F 86% 29.80 in 10.0 mi SW 9.2 mph - N/A   Overcast
7:34 AM 23.0 °F 11.1 °F 17.6 °F 80% 29.80 in 10.0 mi WSW 12.7 mph - N/A   Overcast
7:55 AM 23.0 °F 11.1 °F 17.6 °F 80% 29.80 in 10.0 mi WSW 12.7 mph - N/A   Overcast
8:14 AM 23.0 °F 12.4 °F 17.6 °F 80% 29.80 in 10.0 mi SW 10.4 mph - N/A   Overcast
8:34 AM 23.0 °F 12.4 °F 17.6 °F 80% 29.80 in 10.0 mi SW 10.4 mph - N/A   Overcast
8:55 AM 21.2 °F 9.5 °F 17.6 °F 86% 29.82 in 10.0 mi WSW 11.5 mph - N/A   Overcast
9:14 AM 23.0 °F 12.4 °F 17.6 °F 80% 29.83 in 7.0 mi WSW 10.4 mph 16.1 mph N/A   Overcast
9:35 AM 23.0 °F 13.1 °F 19.4 °F 86% 29.83 in 5.0 mi WSW 9.2 mph - N/A Snow Light Snow
9:55 AM 23.0 °F 12.4 °F 19.4 °F 86% 29.83 in 3.0 mi WSW 10.4 mph - N/A Snow Light Snow
10:14 AM 23.0 °F 12.4 °F 19.4 °F 86% 29.84 in 2.5 mi West 10.4 mph - N/A Snow Light Snow
10:35 AM 24.8 °F 15.3 °F 19.4 °F 80% 29.84 in 5.0 mi WNW 9.2 mph - N/A Snow Light Snow
10:54 AM 24.8 °F 16.1 °F 21.2 °F 86% 29.85 in 2.0 mi WNW 8.1 mph 16.1 mph N/A Snow Light Snow
11:14 AM 24.8 °F 12.9 °F 19.4 °F 80% 29.87 in 5.0 mi WNW 13.8 mph 20.7 mph N/A Snow Light Snow
11:35 AM 24.8 °F 16.1 °F 17.6 °F 74% 29.87 in 7.0 mi WNW 8.1 mph 18.4 mph N/A Snow Light Snow
11:54 AM 23.0 °F 10.1 °F 17.6 °F 80% 29.87 in 7.0 mi West 15.0 mph 20.7 mph N/A Snow Light Snow
12:15 PM 23.0 °F 11.7 °F 17.6 °F 80% 29.87 in 1.2 mi WNW 11.5 mph 19.6 mph N/A Snow Light Snow
12:35 PM 23.0 °F 10.1 °F 17.6 °F 80% 29.86 in 5.0 mi WNW 15.0 mph 21.9 mph N/A Snow Light Snow
12:54 PM 23.0 °F 11.1 °F 14.0 °F 68% 29.86 in 10.0 mi WNW 12.7 mph 23.0 mph N/A   Overcast
1:15 PM 24.8 °F 10.7 °F 12.2 °F 59% 29.85 in 10.0 mi NW 19.6 mph 24.2 mph N/A   Overcast
1:34 PM 23.0 °F 10.1 °F 15.8 °F 74% 29.85 in 5.0 mi WNW 15.0 mph 19.6 mph N/A Snow Light Snow
1:54 PM 23.0 °F 9.6 °F 17.6 °F 80% 29.85 in 3.0 mi WNW 16.1 mph 20.7 mph N/A Snow Light Snow
2:15 PM 21.2 °F 9.5 °F 17.6 °F 86% 29.86 in 5.0 mi WNW 11.5 mph 20.7 mph N/A Snow Light Snow
2:34 PM 21.2 °F 6.8 °F 14.0 °F 74% 29.87 in 5.0 mi WNW 17.3 mph 24.2 mph N/A Snow Light Snow
2:55 PM 21.2 °F 9.5 °F 12.2 °F 68% 29.88 in 7.0 mi WNW 11.5 mph 25.3 mph N/A Snow Light Snow
3:15 PM 21.2 °F 9.5 °F 12.2 °F 68% 29.89 in 7.0 mi WNW 11.5 mph 21.9 mph N/A Snow Light Snow
3:34 PM 19.4 °F 5.5 °F 10.4 °F 68% 29.90 in 7.0 mi WNW 15.0 mph 26.5 mph N/A   Overcast
3:55 PM 19.4 °F 6.0 °F 10.4 °F 68% 29.91 in 7.0 mi WNW 13.8 mph 25.3 mph N/A Snow Light Snow
4:15 PM 19.4 °F 8.6 °F 14.0 °F 80% 29.92 in 3.0 mi WNW 9.2 mph 17.3 mph N/A Snow Light Snow
4:34 PM 17.6 °F 5.0 °F 14.0 °F 86% 29.93 in 1.5 mi WNW 11.5 mph 16.1 mph N/A Snow Light Snow
4:55 PM 17.6 °F 4.3 °F 14.0 °F 86% 29.93 in 5.0 mi WNW 12.7 mph 19.6 mph N/A Snow Light Snow
5:34 PM 17.6 °F 3.7 °F 12.2 °F 79% 29.95 in 4.0 mi WNW 13.8 mph 20.7 mph N/A Snow Light Snow
5:55 PM 17.6 °F 4.3 °F 12.2 °F 79% 29.95 in 7.0 mi WNW 12.7 mph 17.3 mph N/A Snow Light Snow
6:14 PM 17.6 °F 7.3 °F 12.2 °F 79% 29.96 in 5.0 mi West 8.1 mph - N/A Snow Light Snow
6:35 PM 17.6 °F 8.2 °F 14.0 °F 86% 29.96 in 3.0 mi WNW 6.9 mph - N/A Snow Light Snow
6:55 PM 17.6 °F 6.4 °F 14.0 °F 86% 29.97 in 2.0 mi WNW 9.2 mph - N/A Snow Light Snow
6:59 PM 17.6 °F 5.7 °F 14.0 °F 86% 29.97 in 2.5 mi WNW 10.4 mph - N/A Snow Light Snow
7:35 PM 17.6 °F 5.7 °F 14.0 °F 86% 29.98 in 2.0 mi West 10.4 mph - N/A Snow Light Snow
7:55 PM 17.6 °F 4.3 °F 12.2 °F 79% 29.98 in 10.0 mi WNW 12.7 mph 19.6 mph N/A   Overcast
8:14 PM 17.6 °F 5.7 °F 10.4 °F 73% 29.99 in 10.0 mi WNW 10.4 mph 18.4 mph N/A   Overcast
8:35 PM 17.6 °F 6.4 °F 10.4 °F 73% 29.99 in 10.0 mi WNW 9.2 mph - N/A   Overcast
8:55 PM 17.6 °F 4.3 °F 12.2 °F 79% 29.99 in 7.0 mi WNW 12.7 mph 18.4 mph N/A Snow Light Snow
9:14 PM 17.6 °F 9.3 °F 12.2 °F 79% 29.99 in 7.0 mi West 5.8 mph - N/A Snow Light Snow
9:35 PM 17.6 °F 6.4 °F 12.2 °F 79% 30.00 in 7.0 mi West 9.2 mph - N/A Snow Light Snow
9:54 PM 17.6 °F 5.7 °F 12.2 °F 79% 30.00 in 10.0 mi West 10.4 mph - N/A   Overcast
10:15 PM 17.6 °F 6.4 °F 12.2 °F 79% 29.99 in 10.0 mi West 9.2 mph - N/A Snow Light Snow
10:34 PM 15.8 °F 5.1 °F 12.2 °F 86% 29.99 in 10.0 mi WNW 8.1 mph - N/A Snow Light Snow
10:54 PM 15.8 °F 7.2 °F 12.2 °F 86% 29.99 in 7.0 mi WNW 5.8 mph - N/A Snow Light Snow
11:15 PM 17.6 °F 7.3 °F 12.2 °F 79% 30.01 in 2.0 mi WNW 8.1 mph - N/A Snow Light Snow
11:34 PM 15.8 °F 5.1 °F 12.2 °F 86% 30.01 in 7.0 mi WNW 8.1 mph - N/A Snow Light Snow
11:55 PM 17.6 °F 8.2 °F 14.0 °F 86% 30.02 in 2.5 mi West 6.9 mph - N/A Snow Light Snow